Вернуться в каталог

FENGYUN 1C DEB

LostSSO
NORAD 32339·DEBRIS·🇨🇳 China

Запущен May 10, 1999 с Taiyuan Satellite Launch Center

Loading…

Ближайшие Пролёты (ближайшие 24 часа)

TLE

УстаревшееSource: Space-Track

Эпоха: Feb 3, 2024, 23:44 UTC

1 32339U 99025CYG 24034.98945937  .00004666  00000-0  16815-2 0  9997
2 32339  98.5976 104.7914 0042987 275.5917  84.0366 14.33627374549429

Отслеживайте FENGYUN 1C DEB в реальном времени с AllMySat

Download on the App Store